Temp
62 61 59 59 59 58 59 62 62 62 63 64 64 64 64 64 62 56 50 58 60 69 65 59 57 56 56 51 53 51 38 34 36 37 44 49 47 52 56 53 55 58 57 62 64
61 60 59 58 57 58 57 62 61 61 63 61 64 64 64 62 55 50 60 66 68 68 58 54 51 54 48 48 49 45 38 37 44 45 44 48 48 50 48 50 50 53 59 61 62
61 61 59 57 57 57 57 62 60 61 62 62 61 64 62 59 50 54 65 67 69 66 60 58 55 53 46 50 45 43 40 44 46 48 49 47 47 51 47 45 51 52 56 59 58
61 60 59 57 57 57 57 61 61 63 63 62 63 63 61 55 39 57 68 69 70 62 59 55 52 47 44 44 46 40 44 46 47 49 48 46 50 48 48 51 58 57 58 57 56
60 60 59 57 56 56 57 59 61 62 63 63 63 62 56 49 49 62 68 68 62 60 55 52 48 47 42 43 45 41 44 47 49 48 48 49 46 47 48 55 57 57 56 56 56
60 60 59 59 57 56 57 59 59 59 61 63 62 61 51 42 59 61 61 60 60 57 54 53 50 50 46 45 45 47 46 46 48 48 48 46 47 48 52 56 55 55 55 56 56
59 59 58 59 58 57 59 59 59 62 63 63 62 57 49 46 58 60 61 58 59 57 52 55 57 51 50 44 48 47 41 45 47 48 47 48 43 42 53 53 52 53 55 56 57
60 59 59 59 59 58 59 57 56 59 62 62 61 53 44 58 57 59 60 58 59 59 59 58 57 52 48 49 46 42 42 35 47 48 49 49 39 49 53 50 50 52 54 54 56
59 59 59 59 59 59 59 57 58 61 62 61 52 47 44 62 55 58 59 55 55 58 59 59 55 48 48 41 37 41 32 35 40 48 47 46 41 50 54 51 49 52 53 54 55
59 58 59 59 59 60 60 60 61 58 57 57 55 45 50 48 54 56 57 57 53 52 52 50 47 43 42 39 29 32 33 36 37 43 45 41 41 47 51 49 50 52 53 53 53
58 58 58 58 58 58 53 49 45 44 46 42 43 45 49 53 56 54 56 54 52 48 40 44 38 34 37 40 41 37 36 34 37 44 41 40 41 45 49 49 49 50 49 49 51
58 58 58 58 58 57 49 42 44 45 40 47 48 49 51 52 47 51 56 46 45 38 42 39 34 41 43 43 41 39 35 34 39 44 42 40 40 45 48 47 49 48 48 48 50
58 58 57 58 57 49 46 45 49 47 40 45 49 48 48 51 45 47 52 47 41 37 38 34 38 44 43 40 37 36 33 33 34 39 41 38 38 41 47 48 49 50 50 50 49
58 58 57 57 50 45 44 48 49 47 29 37 43 48 50 49 43 53 53 47 42 37 38 36 42 41 39 37 40 31 39 38 36 34 29 40 29 38 41 43 46 46 46 47 48
57 57 57 53 43 42 45 48 48 46 17 40 43 54 50 45 45 47 53 47 38 38 38 35 37 36 36 38 40 35 39 36 36 33 32 35 30 36 41 37 41 43 44 46 48
57 56 56 48 45 46 47 47 45 26 16 34 42 41 41 44 44 47 46 48 45 38 37 36 42 40 39 42 42 43 37 35 33 34 26 34 31 31 34 36 41 41 43 45 46
57 56 51 49 44 48 47 42 26 19 35 33 35 40 38 38 40 40 38 34 31 25 25 33 36 40 42 38 41 39 32 23 21 22 24 33 30 32 41 43 43 40 42 44 45
56 54 51 51 46 46 43 34 21 31 31 39 38 38 34 38 37 36 35 30 35 32 25 23 23 36 42 37 34 35 34 22 18 20 24 32 27 33 44 47 47 45 44 44 44
54 44 45 47 47 45 38 28 28 32 36 35 37 32 33 36 36 33 30 29 32 33 27 24 27 38 39 39 38 33 30 36 24 22 24 27 35 40 44 43 44 44 43 42 43
42 41 43 47 45 41 33 32 32 38 39 38 31 32 28 31 31 30 28 32 33 35 34 31 22 35 38 40 39 36 37 26 26 16 19 25 28 30 36 37 40 40 41 43 44
40 40 46 45 44 38 26 29 35 41 40 36 31 31 29 28 29 26 28 33 34 34 34 32 29 30 35 32 30 32 29 30 30 29 19 18 25 39 37 38 37 39 42 43 44
39 36 45 44 35 30 27 34 42 38 39 38 37 33 29 30 28 27 27 31 36 35 30 32 28 21 29 34 36 34 30 28 23 22 23 21 24 41 39 39 39 39 41 43 45
36 36 44 43 27 25 33 37 38 37 36 36 35 36 34 30 27 29 30 38 37 35 31 33 22 14 24 30 32 30 32 31 24 22 25 21 25 40 39 39 40 38 40 41 44
37 34 37 35 32 32 31 32 34 39 37 38 36 35 32 30 31 29 29 36 36 35 42 37 22 20 18 23 28 25 31 31 26 16 19 23 27 34 37 38 39 39 39 41 42
33 33 33 28 31 32 32 33 33 33 36 36 33 33 30 27 27 27 29 31 34 37 32 31 18 23 26 28 29 28 29 31 19 26 21 27 27 33 36 37 38 38 39 40 41
35 34 31 31 32 30 34 33 34 33 33 33 33 32 30 28 29 27 28 27 27 30 28 29 19 16 15 29 28 27 30 30 31 31 29 29 29 36 38 38 39 38 39 39 39
34 35 36 33 30 30 33 34 35 35 36 35 34 31 31 34 34 32 32 31 28 26 27 25 18 15 17 25 20 18 28 31 33 33 33 27 34 36 37 38 38 39 39 39 39
MSLP
1015.46 1015.25 1014.99 1014.81 1014.66 1014.57 1014.37 1014.25 1014.26 1014.17 1013.98 1014.17 1014.52 1014.93 1015.21 1015.52 1015.84 1016.27 1016.54 1015.85 1015.76 1015.60 1016.37 1016.86 1017.16 1017.19 1017.58 1018.28 1018.45 1018.73 1019.54 1020.08 1019.94 1019.55 1018.71 1018.47 1018.30 1017.98 1017.37 1017.09 1016.72 1016.02 1015.20 1014.51 1014.05
1015.42 1015.17 1015.05 1014.64 1014.50 1014.49 1014.42 1014.17 1014.18 1014.22 1014.12 1014.13 1014.50 1014.92 1015.23 1015.71 1016.02 1016.19 1015.91 1015.47 1015.37 1015.80 1016.66 1017.08 1017.51 1017.69 1018.19 1018.62 1018.87 1019.09 1019.60 1019.50 1019.32 1018.99 1018.58 1018.24 1018.15 1017.87 1017.60 1016.94 1016.06 1015.52 1014.51 1014.20 1014.06
1015.10 1014.92 1014.98 1014.80 1014.67 1014.53 1014.48 1014.23 1014.19 1014.09 1014.02 1014.32 1014.64 1014.99 1015.41 1015.84 1015.99 1015.72 1015.31 1015.36 1015.36 1016.00 1016.76 1017.11 1017.65 1018.05 1018.27 1018.65 1019.31 1019.40 1019.36 1019.05 1018.52 1018.22 1018.22 1017.96 1017.67 1017.42 1017.14 1016.39 1014.89 1014.63 1013.75 1013.74 1013.78
1015.00 1014.71 1014.60 1014.71 1014.75 1014.59 1014.55 1014.23 1013.90 1013.27 1013.73 1014.43 1014.88 1015.28 1015.61 1015.87 1016.48 1015.73 1015.39 1015.28 1015.35 1016.23 1016.96 1017.57 1017.98 1018.21 1018.41 1018.76 1019.09 1019.29 1019.03 1018.89 1018.04 1017.65 1017.83 1017.65 1017.22 1016.62 1016.69 1014.58 1014.37 1014.08 1013.72 1013.44 1013.19
1014.79 1014.41 1014.33 1014.55 1014.61 1014.41 1014.61 1014.38 1014.05 1013.75 1013.89 1014.42 1015.01 1015.35 1015.57 1016.08 1016.49 1015.83 1015.60 1015.59 1016.11 1016.61 1017.24 1017.91 1018.28 1018.14 1018.39 1018.79 1019.02 1019.08 1018.69 1018.19 1017.52 1017.27 1017.25 1017.22 1016.51 1016.54 1015.20 1014.45 1014.18 1013.70 1013.08 1012.56 1012.29
1014.45 1014.24 1014.19 1014.16 1014.50 1014.58 1014.67 1014.48 1014.14 1014.23 1014.20 1014.71 1015.16 1015.48 1015.84 1016.39 1016.37 1016.06 1016.03 1016.31 1016.50 1016.94 1017.60 1018.00 1018.02 1017.96 1018.36 1018.61 1018.66 1018.45 1018.13 1017.45 1016.88 1016.44 1016.45 1016.37 1015.77 1015.70 1014.10 1013.91 1013.45 1013.05 1012.42 1011.81 1011.40
1014.42 1014.14 1014.40 1014.50 1014.71 1014.88 1014.77 1014.67 1014.31 1014.21 1014.67 1015.10 1015.46 1015.62 1016.07 1016.79 1016.54 1016.32 1016.21 1016.68 1016.87 1017.22 1017.67 1017.85 1017.90 1018.08 1018.13 1018.36 1018.40 1018.04 1017.66 1016.74 1016.16 1016.00 1015.53 1015.46 1015.15 1015.00 1014.02 1013.43 1012.87 1012.35 1011.82 1011.26 1010.66
1015.06 1014.81 1014.85 1014.93 1015.06 1015.09 1014.91 1014.94 1015.10 1015.02 1015.21 1015.39 1015.52 1016.13 1016.78 1016.45 1016.60 1016.43 1016.54 1017.01 1017.13 1017.29 1017.48 1017.64 1017.63 1017.96 1018.21 1018.38 1018.10 1017.77 1017.69 1017.21 1015.84 1015.45 1015.18 1015.19 1014.34 1013.89 1013.54 1013.26 1012.51 1012.01 1011.28 1010.63 1009.81
1016.01 1015.65 1015.55 1015.52 1015.55 1015.20 1015.25 1015.47 1015.57 1015.55 1015.64 1015.73 1016.20 1016.52 1016.84 1016.33 1016.68 1016.79 1016.87 1017.16 1017.27 1017.37 1017.34 1017.51 1017.66 1017.90 1018.13 1018.29 1018.24 1017.91 1017.83 1017.24 1016.21 1015.60 1015.43 1015.39 1014.50 1013.43 1013.18 1012.95 1012.27 1011.49 1010.74 1009.95 1009.20
1016.53 1016.39 1016.18 1016.04 1015.76 1015.54 1015.52 1015.66 1015.80 1015.86 1016.25 1016.38 1016.45 1017.00 1017.07 1017.25 1017.12 1017.03 1017.03 1017.14 1017.35 1017.50 1017.61 1017.73 1017.80 1017.99 1018.21 1018.30 1018.47 1018.17 1018.03 1017.41 1016.77 1015.88 1015.57 1015.33 1014.52 1013.59 1012.98 1012.88 1012.28 1011.28 1010.40 1009.48 1008.68
1017.46 1016.98 1016.80 1016.31 1016.26 1016.31 1016.46 1016.53 1017.05 1017.16 1017.37 1017.87 1018.15 1017.62 1017.65 1017.52 1017.25 1017.20 1017.13 1017.24 1017.48 1017.77 1017.99 1018.04 1018.33 1018.31 1018.17 1018.16 1018.12 1018.22 1017.92 1017.59 1017.10 1016.13 1015.98 1015.06 1014.29 1013.32 1013.03 1012.66 1011.92 1011.18 1010.12 1008.99 1007.80
1018.13 1017.66 1017.38 1017.27 1016.86 1016.67 1017.01 1017.93 1018.83 1018.94 1018.77 1018.32 1018.01 1017.84 1017.69 1017.61 1017.54 1017.34 1017.13 1017.54 1017.79 1018.08 1018.25 1018.55 1018.15 1017.64 1017.67 1017.66 1017.64 1017.71 1017.74 1017.33 1016.75 1016.21 1016.04 1014.95 1014.01 1012.89 1012.87 1012.76 1012.33 1011.33 1010.20 1008.84 1007.24
1018.77 1018.51 1017.96 1017.64 1017.49 1017.66 1018.48 1019.31 1019.10 1018.78 1018.64 1018.65 1018.27 1018.06 1017.95 1017.82 1017.76 1017.46 1017.43 1017.62 1017.94 1018.32 1018.51 1018.62 1017.76 1017.42 1017.34 1017.37 1017.58 1017.61 1017.64 1017.43 1017.31 1016.48 1015.77 1015.27 1014.08 1013.30 1012.68 1012.67 1011.86 1010.95 1009.97 1008.34 1006.91
1018.96 1018.83 1018.64 1018.00 1018.22 1018.96 1019.26 1019.40 1019.01 1018.84 1019.17 1019.80 1018.69 1018.16 1018.02 1017.82 1017.83 1017.46 1017.32 1017.76 1018.05 1018.42 1018.45 1018.48 1017.85 1017.67 1017.41 1017.42 1017.61 1017.64 1017.40 1017.46 1017.39 1017.16 1016.51 1015.72 1014.98 1013.92 1013.50 1012.29 1011.95 1011.09 1009.78 1008.17 1006.73
1019.20 1018.87 1018.84 1019.45 1020.05 1020.37 1020.94 1019.77 1019.06 1018.88 1019.94 1020.44 1019.07 1018.05 1018.10 1018.34 1018.34 1017.83 1017.58 1017.77 1018.35 1018.71 1019.13 1018.77 1018.24 1017.95 1017.63 1017.31 1017.48 1017.85 1017.80 1017.75 1017.50 1017.44 1017.11 1016.25 1015.96 1014.47 1014.06 1012.89 1012.12 1011.49 1010.33 1008.71 1007.48
1019.41 1019.01 1018.64 1019.21 1019.82 1020.17 1019.69 1019.51 1019.66 1020.31 1022.16 1021.15 1020.00 1019.26 1018.97 1018.81 1018.67 1018.28 1018.26 1018.42 1018.76 1019.08 1019.30 1019.17 1018.44 1018.16 1017.75 1017.31 1017.32 1017.60 1017.81 1017.76 1017.92 1017.68 1017.39 1016.68 1016.43 1015.23 1014.66 1014.50 1013.54 1012.76 1011.94 1010.22 1008.36
1019.71 1019.54 1019.06 1019.53 1019.86 1019.49 1019.21 1019.67 1020.55 1022.15 1023.26 1022.28 1021.12 1020.33 1020.10 1019.86 1019.58 1019.55 1019.72 1020.06 1020.53 1020.47 1020.40 1019.80 1018.92 1018.24 1017.94 1017.80 1017.63 1017.77 1017.96 1018.39 1018.54 1018.14 1017.62 1016.86 1016.60 1015.88 1015.56 1015.26 1014.97 1014.19 1013.25 1011.96 1010.36
1019.44 1019.48 1019.99 1019.64 1019.61 1019.53 1019.58 1020.64 1022.16 1023.48 1022.88 1021.99 1021.21 1020.65 1020.60 1020.41 1020.53 1020.74 1020.98 1021.55 1021.57 1021.84 1021.95 1021.38 1019.75 1018.80 1018.31 1018.45 1018.42 1018.33 1018.39 1018.62 1018.77 1018.62 1018.21 1017.20 1016.79 1015.82 1015.54 1015.47 1015.33 1014.97 1014.13 1012.47 1011.29
1019.69 1020.09 1019.88 1019.49 1019.73 1019.76 1020.35 1021.80 1023.49 1023.22 1022.81 1022.30 1021.55 1021.39 1021.15 1020.92 1021.01 1021.42 1021.97 1022.42 1022.45 1022.53 1022.81 1022.06 1020.68 1019.16 1018.70 1018.52 1018.70 1018.59 1018.81 1019.03 1019.11 1019.42 1018.87 1018.19 1016.83 1015.92 1015.51 1015.37 1015.27 1014.89 1014.24 1013.14 1012.17
1020.47 1020.47 1020.22 1019.74 1019.87 1020.30 1020.99 1022.98 1023.42 1022.90 1022.61 1022.24 1021.96 1021.74 1021.87 1021.84 1021.90 1022.17 1022.52 1022.61 1022.68 1022.69 1022.78 1022.57 1021.77 1019.85 1019.16 1018.86 1018.95 1019.02 1019.49 1019.65 1019.64 1019.73 1019.29 1018.66 1017.53 1016.67 1016.17 1016.10 1015.84 1015.42 1014.85 1013.99 1013.27
1020.58 1020.91 1019.79 1019.79 1019.60 1020.62 1023.25 1023.73 1023.08 1022.37 1022.11 1021.96 1022.04 1022.21 1022.38 1022.56 1022.67 1022.80 1022.78 1022.59 1022.64 1022.59 1022.66 1022.86 1022.88 1020.88 1020.04 1019.92 1020.12 1019.88 1020.05 1020.33 1020.38 1020.25 1020.18 1019.50 1017.73 1016.53 1016.79 1017.00 1016.75 1016.28 1015.73 1015.07 1014.21
1021.10 1021.40 1020.04 1020.39 1021.21 1022.81 1023.83 1023.13 1022.22 1021.95 1021.63 1021.57 1021.62 1021.93 1022.18 1022.44 1022.79 1022.88 1023.03 1022.74 1022.51 1022.59 1022.90 1022.97 1023.13 1022.58 1021.47 1020.86 1020.54 1020.56 1020.82 1021.09 1021.31 1021.15 1020.90 1020.30 1018.23 1016.71 1016.89 1017.12 1017.17 1016.82 1016.37 1015.69 1015.12
1021.73 1021.57 1020.02 1019.52 1022.75 1024.09 1023.52 1022.85 1022.29 1021.91 1021.67 1021.49 1021.64 1021.92 1022.06 1022.37 1022.60 1022.57 1022.63 1022.29 1022.50 1022.77 1022.92 1023.08 1023.76 1023.48 1022.40 1022.13 1021.48 1021.15 1021.22 1021.39 1021.65 1021.75 1021.23 1020.52 1018.64 1017.02 1017.05 1017.04 1017.27 1017.22 1016.72 1016.34 1015.69
1022.36 1022.68 1021.92 1022.10 1023.56 1023.61 1023.71 1023.13 1022.65 1022.37 1022.58 1022.58 1022.75 1022.26 1022.21 1022.43 1022.59 1022.64 1022.49 1022.37 1022.54 1022.75 1023.13 1023.45 1024.27 1024.44 1023.99 1023.03 1022.49 1021.74 1021.38 1021.36 1021.58 1022.12 1021.31 1020.16 1018.74 1017.87 1017.25 1017.27 1017.34 1017.32 1017.08 1016.62 1016.15
1022.82 1023.84 1023.97 1023.71 1023.96 1023.39 1023.47 1023.49 1022.99 1022.18 1022.07 1022.06 1022.35 1022.44 1022.60 1022.44 1022.43 1022.56 1022.73 1022.68 1022.66 1023.05 1023.41 1023.96 1024.91 1024.66 1023.52 1022.90 1022.58 1022.01 1021.45 1021.18 1021.28 1020.85 1020.71 1019.66 1018.99 1017.65 1017.36 1017.33 1017.45 1017.46 1017.17 1016.74 1016.33
1023.24 1023.54 1024.23 1024.12 1023.90 1023.38 1023.14 1023.02 1022.61 1022.50 1022.52 1022.27 1022.48 1022.53 1022.79 1022.98 1022.97 1023.00 1023.15 1023.17 1023.21 1023.47 1023.88 1024.47 1025.07 1025.17 1024.12 1022.62 1022.27 1021.53 1020.50 1020.43 1020.39 1019.97 1019.56 1019.05 1018.60 1017.12 1017.08 1017.13 1016.97 1017.13 1017.21 1017.05 1016.78
1023.54 1023.68 1023.10 1023.97 1023.79 1023.53 1022.33 1022.01 1021.97 1022.29 1022.33 1022.33 1022.47 1022.67 1022.57 1022.43 1022.59 1022.93 1023.38 1023.63 1023.64 1023.95 1024.39 1024.92 1025.26 1025.70 1024.38 1023.00 1022.11 1021.08 1018.94 1018.71 1018.66 1018.57 1018.50 1018.37 1017.33 1017.09 1017.05 1016.99 1016.89 1016.88 1017.03 1017.13 1017.00
Wind_Speed
19 18 15 17 16 18 8 7 8 7 7 15 12 9 7 4 6 3 4 5 5 12 8 6 5 4 4 3 3 2 3 1 3 4 2 1 2 2 3 9 5 8 11 12 15
18 17 17 15 11 14 7 6 8 7 7 11 13 9 7 6 3 2 6 6 9 14 5 5 3 3 3 3 3 2 2 4 5 3 4 3 6 10 5 9 14 15 19 19 18
21 17 13 12 10 10 8 9 9 10 4 13 10 10 9 4 2 3 5 9 12 11 4 3 4 2 3 3 1 1 3 4 6 10 6 8 8 7 5 9 17 13 14 10 10
22 18 11 7 7 9 10 11 11 7 16 15 13 11 9 3 4 5 11 11 12 10 5 4 2 2 3 3 3 0 9 6 5 4 3 7 6 8 10 20 14 16 18 18 18
22 18 13 2 2 3 6 12 9 6 19 15 13 11 4 5 3 4 6 8 8 5 5 3 2 0 2 1 3 4 4 7 10 12 13 12 17 10 18 18 18 18 18 19 17
18 14 11 5 7 2 5 10 10 3 16 12 11 7 3 6 4 6 8 5 6 5 3 3 3 3 2 4 5 3 6 10 8 14 11 8 6 3 7 5 11 11 15 16 17
21 13 8 9 6 6 7 13 12 15 16 14 10 2 8 3 3 3 5 3 3 4 3 3 2 1 0 3 3 4 7 10 7 5 4 3 3 6 6 9 14 15 15 15 16
23 16 13 10 8 5 9 13 8 8 13 10 8 3 4 0 1 4 3 3 3 3 1 2 3 2 2 3 3 4 2 4 3 0 2 3 7 8 6 9 15 13 15 15 17
20 16 13 13 10 7 8 14 7 9 11 8 5 1 4 3 4 1 1 2 2 1 2 2 2 2 2 4 3 1 4 4 7 7 2 3 14 11 15 10 15 15 15 15 18
19 15 15 13 16 13 16 13 13 9 5 0 2 4 5 2 3 1 1 3 2 1 2 1 1 1 1 2 3 6 5 5 9 4 10 12 16 10 10 10 15 16 18 17 18
22 19 16 15 12 11 6 3 5 7 10 5 1 5 2 6 2 4 1 3 1 4 1 0 1 5 8 6 3 9 10 10 7 14 6 8 12 16 7 15 16 19 20 20 20
20 16 15 16 14 9 5 6 3 1 6 3 2 3 0 1 3 3 1 1 0 3 1 2 5 8 5 5 5 6 8 8 8 5 3 9 13 12 6 15 15 19 21 21 21
23 21 17 12 8 7 7 5 6 2 6 5 3 3 3 3 2 2 1 1 2 2 1 4 7 6 2 3 3 3 4 3 5 6 2 6 5 4 14 13 19 22 22 22 24
20 20 22 16 7 4 5 10 7 3 7 10 7 4 2 2 2 2 1 1 1 2 4 3 4 4 6 3 1 6 3 2 5 5 3 4 5 2 19 21 22 24 25 26 28
18 15 14 18 3 6 8 10 7 5 8 9 7 3 6 4 2 5 3 3 3 4 4 6 5 4 3 3 2 4 7 4 3 2 3 4 3 2 18 24 28 26 28 30 26
10 11 8 6 4 5 5 5 5 9 4 8 5 7 5 5 4 5 4 6 1 3 2 5 4 1 3 5 2 3 3 3 2 1 1 3 0 4 13 17 22 21 25 28 28
9 8 6 2 1 5 3 5 7 10 5 9 5 6 4 5 5 7 6 7 5 7 7 7 4 5 1 4 2 7 3 2 4 1 3 3 2 4 9 16 17 20 21 20 21
5 6 4 0 3 3 4 7 13 5 2 4 3 5 3 5 4 7 4 7 5 5 3 4 8 4 5 2 2 3 1 3 3 2 1 5 3 4 5 11 14 15 17 19 20
4 3 3 3 4 1 6 9 5 4 4 5 6 4 5 5 3 4 5 4 3 4 3 3 5 5 0 1 2 4 3 3 4 1 2 3 3 3 6 13 16 16 18 19 21
3 2 3 6 3 4 7 6 2 2 3 2 4 2 3 5 5 5 5 1 5 2 2 3 5 3 4 2 3 4 1 2 2 2 1 2 3 4 10 13 15 16 17 18 18
4 4 3 3 4 7 6 3 1 1 1 2 2 4 3 3 3 2 4 3 1 6 0 2 2 6 1 4 1 5 3 3 1 1 2 0 5 3 3 6 10 13 14 15 16
3 4 2 2 7 3 2 0 1 2 3 2 3 1 1 2 2 1 2 4 1 2 2 1 1 4 1 1 2 1 1 1 2 2 2 2 6 2 4 4 5 9 10 13 13
3 2 3 6 5 3 2 1 1 2 1 1 2 2 1 1 1 0 2 2 3 3 1 1 1 5 7 4 2 2 1 2 3 2 3 1 4 4 4 5 3 6 9 9 11
3 3 6 6 2 5 2 2 2 2 2 3 4 2 1 0 1 3 3 2 2 2 4 2 2 7 6 6 1 4 3 2 3 3 3 5 6 4 6 5 5 6 7 7 8
3 1 2 2 0 5 4 1 2 1 1 1 1 2 2 3 2 3 2 4 1 5 2 4 2 3 6 6 2 4 6 4 3 4 5 3 5 7 6 5 4 3 5 7 8
3 4 2 1 2 2 3 6 5 2 3 1 2 1 2 3 3 3 1 2 3 4 2 2 2 3 6 4 5 6 9 6 6 3 7 5 8 8 5 3 5 3 4 5 6
1 1 5 1 1 2 5 7 7 5 5 2 3 2 4 6 6 4 4 1 1 1 1 2 3 3 6 3 3 6 7 7 4 5 5 5 6 4 4 5 5 4 2 2 4
Wind_Direction
350 346 335 326 330 346 333 359 345 328 332 165 158 149 150 147 97 72 241 207 170 139 97 106 50 68 55 62 38 120 79 152 252 196 272 170 239 261 258 260 256 228 237 251 278
346 351 355 349 332 357 351 18 345 330 319 135 138 145 144 121 89 245 244 184 151 127 95 107 103 92 67 66 25 73 113 221 201 207 236 237 233 275 269 273 260 273 257 253 267
350 346 344 8 358 12 351 13 349 310 249 137 138 146 131 111 112 341 200 166 157 116 87 79 115 102 85 110 164 122 208 210 240 235 233 272 273 237 247 273 255 255 274 263 246
340 346 343 347 26 26 346 359 2 311 150 149 154 139 117 84 89 346 137 152 136 110 76 81 68 123 98 167 143 189 238 225 269 243 250 259 271 268 226 249 269 272 275 280 271
348 344 352 359 94 76 345 348 360 50 132 140 137 135 103 70 56 320 138 124 87 94 123 120 156 123 104 177 169 218 257 240 252 266 256 257 253 255 263 268 277 271 272 265 260
360 4 3 85 146 105 21 351 6 154 120 134 135 122 79 78 310 327 117 85 107 92 123 151 191 192 199 221 211 195 252 274 270 261 245 244 269 150 272 319 302 284 275 268 262
8 27 41 88 127 61 33 44 27 122 129 131 130 89 63 125 345 35 86 98 123 130 161 228 167 345 323 311 278 266 308 306 263 228 255 239 233 208 294 325 325 321 307 294 282
30 51 69 75 80 43 34 56 29 90 122 122 83 61 93 182 309 77 79 92 109 132 47 41 159 211 208 272 312 332 225 308 268 273 322 112 289 310 308 335 313 307 309 302 299
37 52 54 65 55 48 113 125 140 121 104 82 50 57 49 341 67 140 103 87 100 166 209 134 203 192 167 345 327 192 276 293 324 348 23 358 306 297 310 314 309 312 303 313 307
41 42 42 39 39 86 110 126 103 67 32 348 69 43 8 351 305 68 44 131 111 157 170 197 49 0 307 199 315 308 307 293 305 285 322 298 276 285 300 302 317 316 324 320 311
32 34 34 31 51 57 56 38 29 12 34 80 232 102 40 298 260 39 147 120 89 54 270 72 29 247 229 230 229 296 276 285 268 277 281 273 282 287 305 339 333 334 327 320 314
26 25 26 36 40 27 57 63 31 228 66 35 58 62 241 326 65 0 144 139 168 260 290 4 250 255 248 254 285 260 286 281 281 294 273 298 287 276 15 334 342 331 328 322 319
25 13 3 359 14 42 76 48 307 303 83 7 24 34 321 24 105 321 110 242 243 282 224 185 255 324 257 332 320 297 253 262 286 313 253 293 301 325 326 337 346 344 331 336 333
35 24 3 340 36 330 39 336 334 307 79 339 350 5 333 339 42 274 267 227 298 289 338 248 300 340 327 241 103 304 320 283 331 340 306 3 299 347 345 339 351 347 339 342 340
39 38 53 34 11 34 316 319 318 48 64 309 323 296 321 70 303 337 359 11 287 295 65 268 335 349 317 250 154 282 350 301 277 233 348 343 264 289 351 353 351 347 343 339 343
37 34 59 54 87 197 278 325 27 42 15 335 328 350 14 2 351 322 16 35 329 348 355 256 281 250 265 306 189 318 254 40 53 18 8 343 314 325 357 342 343 343 346 336 346
350 19 48 133 232 312 324 46 46 74 292 323 334 356 328 333 2 10 14 12 34 13 7 332 329 313 333 344 48 15 49 40 35 314 192 341 73 257 346 356 0 344 340 339 343
11 16 345 231 287 287 63 53 58 233 256 282 287 322 23 2 15 6 14 11 24 46 354 25 342 6 349 24 304 323 27 134 164 183 249 339 339 296 350 347 5 358 350 347 353
9 3 5 295 336 31 70 52 163 200 238 322 328 11 332 2 40 54 22 349 309 33 358 5 280 311 64 309 52 328 33 334 108 204 80 293 290 322 354 351 358 4 3 355 354
56 39 285 318 48 52 71 116 183 248 314 355 19 41 335 327 29 29 15 353 328 41 138 313 306 262 299 65 20 85 325 52 7 52 340 302 264 259 337 342 348 358 359 356 359
60 54 265 319 91 56 86 75 281 251 19 67 9 310 342 339 18 2 317 284 35 315 84 350 123 294 349 35 285 350 19 17 332 2 170 243 270 213 310 334 341 343 355 356 1
85 43 282 39 48 33 81 228 261 279 28 70 159 148 221 344 330 347 294 242 338 187 354 333 148 277 3 101 184 122 78 98 120 270 92 148 274 310 312 326 357 334 351 351 356
78 261 311 102 84 348 281 263 223 11 20 70 126 104 110 18 11 254 257 226 343 9 72 134 21 353 347 354 6 108 211 137 117 17 238 145 259 282 295 333 348 345 346 345 350
71 19 337 44 134 129 164 271 296 11 57 353 357 76 13 179 202 276 308 243 328 7 47 99 112 157 195 225 308 308 245 169 130 117 189 231 294 252 286 313 334 344 337 336 349
36 147 276 261 26 131 127 338 323 335 124 55 119 86 235 230 273 234 254 316 313 358 71 104 215 218 238 229 250 256 273 266 191 196 167 242 231 271 267 278 290 305 326 344 353
125 132 31 355 54 145 160 195 198 230 178 225 172 207 168 248 237 273 217 217 241 332 78 22 266 98 292 197 215 273 273 252 241 237 269 257 267 244 261 286 311 326 349 348 345
288 346 109 306 235 157 215 183 204 164 228 216 179 179 218 223 203 217 214 289 256 226 320 50 116 55 271 19 357 331 231 191 237 198 177 210 239 184 266 271 270 279 295 315 339